Wind_Speed
43 43 41 39 39 42 45 45 44 46 43 42 38 37 34 32 30 34 31 17 24 22 24 22 18 16 17 17 16 15 15 14 15 15 14 17 18 17 17 16 19 19 18 20 22 23 24 25 28
44 45 43 42 42 46 48 46 48 47 45 45 42 42 43 41 37 37 41 29 23 26 30 27 24 24 19 21 19 21 21 20 18 18 18 17 19 20 21 22 19 20 22 22 21 25 28 29 32
46 46 46 44 44 49 51 49 52 48 47 47 47 46 50 47 43 42 36 32 31 27 26 32 31 29 26 24 25 26 26 23 20 20 21 20 19 23 24 22 23 23 22 24 26 26 28 33 35
49 48 46 45 49 52 55 53 53 54 53 53 52 50 51 47 45 49 43 39 39 42 39 29 29 31 32 30 29 29 27 26 24 24 24 25 23 24 25 27 25 23 25 26 29 31 32 32 35
53 51 48 48 51 56 57 59 57 58 59 60 58 54 52 53 49 46 53 46 44 44 44 38 33 31 31 30 31 31 29 28 29 28 29 28 27 28 27 29 27 23 25 27 28 29 31 33 33
55 55 51 50 54 56 56 62 61 61 64 63 60 57 54 55 55 50 52 52 45 44 47 46 41 37 36 34 35 32 32 33 33 33 33 32 31 32 32 31 27 27 28 29 31 31 31 33 38
58 57 53 54 54 55 60 64 66 65 65 67 63 61 57 58 58 55 52 56 53 47 46 49 46 42 41 40 42 40 38 38 37 37 34 34 34 36 37 35 32 29 27 32 34 31 35 38 39
60 58 57 58 61 62 65 68 68 70 67 68 69 66 62 62 60 57 59 56 59 53 51 50 48 47 45 43 44 43 43 41 40 39 37 37 38 39 39 40 37 34 32 34 33 37 40 40 41
57 56 58 61 63 67 71 70 72 70 69 71 73 72 70 66 62 63 62 64 62 58 54 53 55 52 50 47 44 43 43 45 45 43 43 44 46 43 43 43 40 39 38 37 38 38 43 44 45
60 56 58 63 65 66 71 72 76 74 72 76 79 75 72 71 65 61 64 64 67 63 57 52 53 54 54 51 48 46 47 48 47 47 48 50 50 47 46 45 44 44 42 40 41 44 47 47 48
65 63 67 67 69 69 70 72 72 74 74 79 83 83 79 75 70 67 66 65 66 67 63 61 61 57 53 55 53 50 49 51 51 52 53 55 53 48 48 46 45 46 44 44 45 47 49 49 52
69 70 71 72 73 75 75 76 77 75 75 81 84 86 87 82 78 74 73 68 63 62 65 64 59 60 62 58 54 55 50 51 52 49 51 52 49 48 50 48 45 47 46 47 48 51 50 52 55
76 77 76 75 77 79 81 80 81 79 80 87 88 88 88 89 85 82 81 76 72 64 64 63 61 57 57 59 58 57 55 54 51 48 51 51 48 46 47 44 44 44 46 48 49 51 51 55 57
78 78 80 80 82 84 85 82 85 82 83 86 92 92 93 92 89 86 86 87 81 77 71 73 66 61 58 59 59 57 55 55 53 51 52 53 52 48 46 41 43 42 43 44 47 51 54 59 59
82 82 84 86 90 89 91 87 87 89 90 92 93 95 96 96 93 91 88 92 89 84 82 77 79 73 69 66 64 61 59 57 57 56 54 52 50 48 45 41 42 43 45 50 54 58 60 59 60
87 88 90 94 99 100 101 91 95 98 98 97 101 100 101 98 94 93 94 93 94 92 88 85 84 82 80 74 70 65 64 65 65 62 61 64 63 60 53 49 53 55 56 58 62 62 63 61 61
94 94 97 98 106 108 109 104 104 107 109 106 106 106 107 108 104 98 97 99 100 95 92 93 89 83 87 85 77 70 69 67 70 67 64 67 68 67 66 65 64 62 60 60 64 64 66 62 63
99 104 105 107 112 118 116 115 113 115 118 117 115 114 116 117 113 107 103 102 103 102 97 95 94 92 88 87 83 76 76 79 74 69 71 75 77 76 72 70 69 63 62 61 61 67 64 63 62
107 110 114 115 118 124 127 124 123 125 127 123 122 123 122 122 121 116 114 110 109 102 98 98 95 93 93 88 80 84 79 71 74 76 74 75 79 77 76 69 68 64 61 58 65 64 63 64 63
113 116 118 122 128 130 132 135 135 132 135 134 132 130 125 124 127 126 122 124 120 112 104 96 97 95 93 94 90 87 71 75 73 77 68 70 70 74 71 68 68 68 66 62 63 63 64 66 67
111 113 116 119 123 127 131 132 134 135 141 139 139 138 139 136 131 135 134 131 131 122 114 104 99 97 96 95 93 88 57 70 49 42 58 76 80 69 68 64 66 60 60 61 63 64 68 70 71
94 102 104 108 111 114 120 124 122 129 132 135 135 137 138 138 141 140 142 138 140 132 124 116 108 99 101 96 93 91 89 79 75 55 55 63 70 76 75 64 61 60 61 62 63 67 71 73 75
72 78 81 86 90 93 99 101 104 107 112 116 118 121 122 126 139 145 145 144 143 140 138 126 116 109 103 103 97 95 92 96 94 77 62 56 52 53 59 64 69 71 65 64 68 71 75 77 77
55 58 62 65 67 71 75 74 80 80 86 91 95 99 103 108 113 120 129 137 145 146 145 136 124 115 108 103 101 96 97 94 94 85 81 76 78 74 77 76 74 71 68 68 71 75 78 76 79
41 41 41 43 47 49 59 53 62 59 64 70 74 77 82 86 95 101 115 130 134 141 147 146 128 120 110 105 104 98 98 95 90 90 86 89 85 81 77 77 75 74 73 74 77 82 80 79 79
25 26 28 29 32 34 44 39 46 44 46 51 60 66 70 74 75 82 91 110 128 138 140 149 139 121 114 107 106 103 96 91 88 86 81 83 86 86 80 78 77 76 75 79 74 73 74 82 81
26 19 20 21 27 24 33 31 32 35 37 44 49 54 59 62 66 72 81 94 111 123 134 142 143 123 118 111 106 105 94 92 85 85 82 80 81 79 81 84 83 79 81 76 76 81 83 86 84
28 32 27 19 21 26 32 30 27 27 31 38 42 47 51 56 60 63 70 85 94 109 121 131 136 124 118 113 107 102 96 86 86 86 79 71 77 75 77 79 80 79 77 79 83 84 86 88 89
37 30 34 28 28 22 29 32 31 27 26 30 32 38 43 49 54 55 61 73 87 99 112 119 123 124 117 112 107 104 94 86 80 75 72 67 75 69 76 83 79 78 77 82 81 84 89 90 89
42 44 42 33 33 31 29 28 29 27 27 27 28 31 29 34 46 48 57 67 81 92 101 107 111 118 110 111 109 101 95 85 71 68 63 54 79 77 79 82 81 82 82 81 85 86 87 85 75
Wind_Direction
219 223 225 222 225 226 228 228 229 228 226 217 216 211 207 207 214 233 222 234 244 244 241 241 241 246 231 223 238 246 271 273 284 285 289 299 302 294 294 306 318 301 295 303 309 310 306 317 323
219 224 225 227 225 227 230 229 232 230 227 224 212 218 209 216 215 226 226 234 245 227 225 232 240 243 226 235 244 263 271 274 281 285 289 292 299 297 300 295 305 305 298 301 301 303 307 318 315
221 224 225 226 228 229 232 233 236 233 232 231 223 216 216 221 227 223 232 236 228 223 229 233 241 243 243 245 254 259 266 273 274 281 286 287 289 292 293 293 299 291 299 300 303 304 307 313 314
225 226 226 227 227 231 234 232 235 236 233 230 230 219 223 229 237 231 231 241 242 234 236 237 245 247 245 245 250 258 266 268 267 279 284 283 283 285 293 293 300 300 297 299 300 302 303 309 310
228 228 223 230 233 234 235 235 234 235 236 233 230 228 221 228 239 241 239 235 242 245 245 248 246 247 246 245 251 257 262 266 266 273 279 281 283 285 291 291 292 295 299 301 305 303 302 304 309
230 230 229 230 234 237 239 241 237 237 238 239 234 231 233 228 232 239 244 247 241 247 249 249 247 247 246 247 255 258 263 264 269 270 274 277 282 284 284 290 289 290 292 298 301 302 308 315 318
237 235 232 231 237 240 241 241 243 239 240 241 240 235 232 236 237 242 241 246 245 244 246 249 250 249 247 247 255 256 258 261 266 268 269 271 277 280 282 285 286 283 290 297 299 297 310 318 317
241 239 237 234 234 236 241 243 244 245 242 244 243 242 238 234 238 239 245 248 249 246 249 250 251 251 247 245 250 259 262 262 263 266 268 268 272 277 281 281 281 284 290 294 294 296 304 313 315
250 248 245 243 241 239 244 245 248 247 248 246 243 244 243 240 234 238 242 247 246 245 247 251 252 253 253 249 249 254 260 260 261 263 266 269 273 277 280 278 277 281 287 289 287 293 299 306 311
250 247 243 246 245 243 246 248 250 248 248 252 251 244 242 243 239 237 240 246 250 243 244 248 251 254 252 253 249 251 256 259 259 262 264 268 272 278 278 279 277 278 282 284 285 292 297 303 306
250 248 248 247 246 245 245 247 247 250 250 250 250 250 244 241 242 237 239 246 255 252 250 248 253 254 255 251 250 251 253 254 258 260 263 268 272 274 274 274 273 274 278 281 285 290 294 299 304
252 253 252 251 251 252 250 248 249 248 249 250 251 251 250 242 237 238 238 238 243 254 256 252 252 255 255 255 253 252 255 254 256 259 262 264 266 268 270 270 272 274 275 279 283 288 291 296 302
254 253 252 250 250 249 249 248 247 249 246 249 249 250 250 249 240 234 233 236 237 238 246 248 250 252 255 257 258 256 253 254 256 258 259 260 262 264 266 269 271 274 276 280 282 285 292 298 301
257 255 255 254 252 250 249 247 248 247 248 246 248 248 249 248 247 239 234 234 233 234 238 246 246 246 248 247 251 254 255 254 255 255 258 260 259 257 261 266 269 272 274 278 282 289 295 298 303
257 256 256 256 255 254 252 249 249 247 247 248 248 251 249 248 248 247 239 238 233 232 235 240 246 244 244 246 247 248 251 255 256 253 252 256 258 257 258 262 265 269 275 281 286 289 293 301 303
261 259 258 258 256 256 254 250 252 250 248 248 250 249 251 249 247 246 245 241 241 232 233 233 241 244 246 244 247 249 252 253 254 253 253 258 260 260 259 264 269 276 281 284 287 291 294 301 304
262 260 258 257 259 256 255 252 251 250 248 246 247 250 249 251 249 246 244 244 242 239 232 235 235 242 246 247 245 248 252 255 255 256 257 261 262 263 266 270 274 279 283 287 290 293 298 302 301
263 262 260 260 258 259 257 256 253 252 250 248 245 245 248 248 249 249 248 245 245 243 236 235 234 236 243 247 247 248 249 254 256 260 260 259 263 264 266 270 275 281 285 289 290 292 297 298 299
264 262 262 260 260 260 260 257 255 255 254 252 249 246 245 248 249 249 250 248 246 242 241 239 237 233 237 244 246 247 251 257 260 256 261 264 266 267 270 264 272 275 279 285 289 294 297 297 299
266 262 262 261 260 261 258 258 258 256 255 254 253 253 251 248 248 249 247 249 248 244 240 238 237 237 233 238 243 246 252 255 257 263 262 264 262 271 268 267 270 273 280 284 289 294 294 296 299
268 266 264 262 261 260 260 260 257 256 256 255 253 250 249 247 246 245 243 244 245 244 241 237 235 235 233 231 236 240 226 248 241 262 260 256 261 264 267 271 276 273 276 282 287 290 291 295 296
266 264 263 262 262 261 263 261 260 258 258 257 256 252 248 247 245 242 243 242 243 243 239 236 234 232 234 230 229 236 234 235 241 258 248 252 256 261 267 267 270 273 277 281 284 286 290 293 297
265 264 263 262 263 263 262 262 260 258 257 256 255 253 250 246 243 241 241 240 240 240 241 235 233 231 232 232 228 229 235 236 241 243 240 253 256 251 255 265 270 278 281 284 287 290 292 294 298
274 272 269 268 267 267 264 264 259 257 254 254 252 250 248 247 246 242 241 239 238 238 239 238 231 229 229 233 231 228 233 236 238 241 239 249 258 260 262 267 274 279 283 287 288 289 291 296 299
281 278 276 273 269 266 269 264 260 252 251 251 251 248 247 245 241 238 233 234 231 235 238 240 232 228 227 229 233 230 230 235 238 241 244 244 252 259 263 269 274 278 284 286 286 290 291 294 298
296 293 286 282 279 274 269 267 267 259 253 250 250 249 246 243 241 238 233 230 230 229 231 236 233 228 225 226 230 232 231 231 236 240 246 250 253 261 265 269 272 277 280 282 283 288 289 297 299
328 327 324 317 297 292 285 276 277 272 264 254 246 245 245 243 239 236 229 227 227 227 227 230 234 225 224 223 225 230 233 233 233 238 242 246 253 259 264 268 271 276 278 279 283 288 290 294 298
337 333 330 317 308 307 298 292 283 274 253 254 249 246 244 243 239 235 229 227 224 225 225 226 229 226 221 221 222 227 230 233 234 237 240 245 249 252 259 266 270 272 275 279 283 286 288 294 295
332 331 330 324 311 295 290 291 293 284 266 258 253 250 245 243 239 233 228 226 226 223 225 224 224 223 219 217 221 225 227 230 233 235 240 246 253 251 257 263 268 271 273 278 282 286 286 291 294
335 332 328 322 320 296 285 282 279 278 271 265 258 253 245 244 241 231 225 222 223 225 224 224 221 221 216 216 218 222 225 226 232 235 232 230 246 253 257 262 268 270 276 276 277 283 287 290 293
Height
10949 10950 10954 10957 10958 10957 10956 10957 10959 10957 10963 10968 10970 10974 10977 10978 10982 10982 10984 10986 10986 10987 10989 10990 10993 10995 10995 10997 10998 10999 11000 11001 11002 11003 11004 11003 11003 11002 11002 11000 11000 10999 10998 10996 10995 10994 10992 10990 10987
10943 10946 10950 10951 10954 10951 10950 10954 10950 10953 10956 10960 10967 10966 10973 10974 10973 10975 10978 10982 10981 10982 10986 10988 10990 10991 10991 10993 10995 10996 10997 10999 10999 11000 11001 11001 11000 11000 10999 10998 10997 10997 10995 10993 10992 10991 10989 10987 10985
10937 10940 10945 10947 10947 10942 10942 10949 10945 10950 10952 10954 10959 10960 10965 10971 10972 10972 10972 10974 10978 10980 10983 10984 10986 10988 10989 10990 10991 10992 10993 10995 10996 10997 10997 10998 10998 10997 10996 10995 10993 10993 10992 10990 10989 10988 10986 10984 10981
10930 10935 10940 10942 10938 10936 10934 10939 10940 10941 10942 10943 10944 10953 10955 10960 10962 10965 10968 10971 10972 10974 10977 10981 10983 10984 10984 10985 10987 10989 10989 10991 10992 10993 10993 10993 10994 10994 10993 10992 10990 10989 10988 10987 10986 10984 10983 10980 10977
10923 10927 10934 10935 10932 10926 10927 10929 10933 10932 10931 10931 10935 10945 10953 10955 10953 10956 10956 10964 10966 10968 10970 10975 10978 10979 10979 10980 10982 10984 10985 10987 10988 10988 10988 10989 10990 10990 10989 10987 10986 10986 10984 10982 10982 10980 10978 10976 10973
10915 10919 10926 10927 10923 10922 10924 10918 10924 10924 10923 10926 10934 10943 10948 10953 10955 10953 10952 10953 10962 10964 10966 10967 10970 10972 10973 10975 10976 10979 10980 10982 10983 10984 10983 10984 10985 10985 10984 10983 10982 10982 10980 10978 10978 10976 10973 10971 10968
10904 10911 10918 10918 10917 10917 10911 10906 10907 10916 10916 10916 10925 10929 10939 10938 10943 10949 10950 10947 10952 10956 10957 10959 10962 10964 10967 10969 10971 10973 10975 10976 10977 10978 10979 10979 10979 10979 10980 10980 10978 10976 10975 10973 10972 10970 10968 10966 10962
10894 10904 10909 10909 10906 10905 10898 10895 10896 10903 10911 10914 10913 10918 10928 10931 10935 10938 10939 10938 10940 10947 10949 10951 10952 10955 10959 10964 10967 10968 10969 10971 10971 10973 10974 10974 10974 10973 10973 10973 10973 10972 10971 10969 10967 10965 10963 10960 10956
10885 10894 10896 10893 10895 10895 10887 10891 10891 10897 10902 10902 10900 10907 10913 10922 10929 10932 10931 10927 10928 10932 10939 10943 10946 10948 10953 10958 10961 10963 10964 10965 10966 10967 10968 10968 10968 10969 10967 10966 10966 10966 10965 10964 10962 10959 10957 10954 10950
10873 10879 10880 10877 10879 10883 10879 10880 10877 10886 10895 10886 10884 10893 10900 10906 10921 10927 10926 10920 10917 10922 10929 10935 10938 10941 10946 10950 10954 10956 10956 10958 10959 10959 10961 10961 10961 10963 10961 10961 10960 10959 10958 10957 10956 10953 10951 10949 10945
10859 10864 10860 10864 10861 10864 10867 10867 10868 10872 10880 10873 10872 10873 10884 10893 10904 10915 10916 10914 10911 10914 10921 10928 10931 10933 10938 10940 10946 10948 10949 10950 10950 10951 10953 10953 10954 10955 10953 10954 10954 10953 10952 10950 10949 10946 10945 10943 10939
10844 10845 10846 10849 10848 10849 10853 10855 10857 10861 10865 10857 10858 10858 10860 10876 10886 10897 10902 10905 10906 10903 10908 10916 10924 10925 10930 10932 10936 10940 10942 10942 10942 10945 10944 10945 10946 10947 10946 10946 10947 10946 10945 10943 10942 10938 10938 10936 10933
10825 10824 10829 10830 10828 10828 10828 10836 10839 10843 10844 10833 10837 10840 10843 10845 10863 10875 10884 10890 10896 10900 10895 10900 10909 10917 10917 10921 10924 10927 10932 10933 10935 10937 10936 10936 10938 10938 10938 10940 10939 10939 10937 10936 10934 10931 10931 10927 10925
10805 10809 10807 10808 10805 10805 10810 10818 10821 10828 10821 10820 10814 10818 10823 10830 10835 10853 10862 10865 10880 10887 10893 10886 10895 10902 10904 10909 10912 10915 10919 10924 10929 10929 10928 10928 10929 10930 10931 10932 10931 10931 10930 10929 10926 10924 10923 10919 10916
10788 10789 10787 10784 10778 10782 10785 10802 10804 10802 10800 10798 10796 10795 10800 10807 10820 10831 10842 10844 10860 10872 10876 10883 10878 10886 10890 10896 10901 10906 10910 10915 10917 10918 10919 10919 10920 10922 10924 10925 10923 10923 10923 10921 10918 10916 10915 10910 10907
10763 10766 10765 10757 10749 10752 10754 10782 10775 10773 10775 10779 10774 10778 10775 10785 10797 10811 10818 10828 10837 10854 10861 10868 10864 10872 10873 10883 10888 10897 10900 10902 10904 10907 10909 10909 10911 10915 10916 10917 10914 10916 10915 10913 10910 10907 10905 10901 10897
10733 10740 10735 10738 10718 10718 10725 10746 10745 10740 10743 10751 10754 10758 10759 10757 10767 10782 10796 10801 10808 10829 10849 10851 10860 10859 10858 10861 10877 10886 10887 10888 10892 10897 10900 10897 10899 10903 10907 10909 10906 10907 10906 10903 10900 10898 10897 10893 10889
10709 10705 10706 10705 10690 10681 10697 10706 10714 10712 10710 10719 10727 10730 10731 10732 10741 10757 10769 10777 10786 10804 10825 10833 10845 10849 10843 10849 10864 10874 10876 10876 10880 10885 10887 10885 10887 10892 10897 10897 10896 10897 10894 10895 10892 10890 10890 10886 10883
10677 10669 10666 10666 10660 10652 10653 10666 10671 10670 10668 10684 10693 10700 10709 10713 10718 10734 10738 10749 10757 10778 10798 10818 10826 10836 10838 10836 10849 10857 10865 10867 10868 10873 10877 10877 10878 10882 10886 10885 10887 10888 10886 10885 10883 10883 10880 10875 10873
10634 10632 10631 10629 10616 10610 10611 10619 10628 10638 10628 10640 10653 10661 10676 10688 10694 10703 10717 10711 10724 10747 10768 10789 10803 10815 10824 10827 10836 10847 10857 10857 10856 10863 10868 10867 10869 10876 10877 10875 10878 10875 10878 10876 10875 10873 10867 10865 10863
10593 10589 10584 10583 10573 10564 10567 10578 10582 10592 10578 10595 10606 10619 10629 10644 10661 10666 10675 10683 10683 10709 10737 10759 10774 10788 10800 10812 10820 10832 10850 10848 10847 10848 10853 10855 10858 10864 10864 10867 10868 10865 10867 10867 10866 10863 10857 10855 10852
10560 10546 10546 10542 10537 10537 10530 10534 10545 10544 10548 10548 10561 10573 10587 10599 10610 10631 10634 10653 10652 10673 10696 10724 10745 10766 10775 10788 10804 10812 10823 10830 10831 10830 10838 10841 10850 10857 10858 10858 10856 10856 10859 10859 10856 10852 10848 10845 10841
10529 10523 10518 10513 10509 10507 10504 10508 10498 10509 10503 10505 10515 10522 10534 10548 10559 10584 10604 10616 10632 10640 10649 10683 10716 10739 10753 10767 10784 10793 10802 10811 10820 10825 10829 10830 10842 10848 10845 10846 10844 10847 10849 10848 10843 10839 10836 10835 10832
10503 10498 10492 10489 10485 10480 10479 10482 10471 10475 10473 10476 10482 10490 10498 10509 10529 10551 10570 10590 10602 10609 10612 10636 10681 10708 10732 10747 10766 10778 10782 10791 10806 10815 10821 10825 10833 10837 10830 10833 10833 10836 10838 10835 10832 10829 10826 10824 10822
10486 10480 10475 10471 10469 10464 10458 10460 10449 10457 10455 10454 10456 10463 10466 10475 10484 10500 10519 10537 10562 10582 10596 10603 10653 10685 10714 10732 10743 10757 10766 10777 10793 10803 10810 10818 10823 10823 10818 10821 10824 10826 10826 10823 10821 10819 10817 10815 10810
10477 10472 10466 10460 10455 10448 10442 10441 10434 10439 10439 10437 10434 10436 10441 10449 10462 10475 10490 10504 10518 10537 10568 10561 10608 10668 10692 10710 10725 10732 10751 10768 10786 10793 10803 10806 10810 10811 10811 10811 10813 10815 10813 10811 10810 10808 10806 10804 10799
10469 10466 10460 10455 10445 10440 10430 10429 10425 10425 10422 10418 10419 10419 10421 10427 10437 10447 10458 10471 10485 10509 10529 10544 10562 10636 10666 10694 10707 10716 10738 10755 10774 10781 10790 10798 10799 10801 10802 10803 10803 10801 10801 10801 10799 10798 10794 10792 10789
10466 10456 10450 10446 10442 10433 10422 10418 10415 10413 10409 10405 10405 10406 10408 10411 10414 10427 10439 10446 10461 10483 10498 10521 10543 10601 10643 10672 10690 10705 10721 10742 10757 10767 10780 10792 10792 10795 10794 10795 10792 10791 10792 10792 10790 10787 10783 10782 10779
10453 10451 10443 10438 10429 10427 10419 10408 10402 10400 10397 10394 10394 10394 10396 10397 10401 10411 10421 10433 10444 10458 10471 10497 10528 10565 10618 10657 10674 10688 10712 10731 10745 10761 10776 10785 10783 10785 10785 10783 10781 10782 10782 10782 10780 10776 10773 10772 10768
10446 10438 10430 10425 10421 10412 10407 10403 10393 10389 10386 10382 10381 10380 10384 10387 10388 10395 10403 10413 10421 10433 10451 10476 10509 10545 10596 10635 10652 10677 10698 10724 10740 10753 10769 10782 10781 10776 10775 10773 10773 10771 10772 10772 10770 10766 10763 10760 10755